Saint Simons Island, GA

8:16 AM EST on December 16, 2019 (GMT -0500)
McKinnon

Weather History for KSSI - October, 2019

Change the Weather History Date:

Tuesday, October 22, 2019

  Actual Average Record
Temperature  
Mean Temperature 77 °F 68 °F  
Max Temperature 87 °F 76 °F 89 °F (2006)
Min Temperature 66 °F 60 °F 43 °F (1976)
Degree Days  
Heating Degree Days 0 1  
Month to date heating degree days 0 12  
Since 1 July heating degree days 0 12  
Cooling Degree Days 12 5  
Month to date cooling degree days 257 156  
Year to date cooling degree days 3244 2527  
Growing Degree Days 30 (Base 50)    
Moisture  
Dew Point 71 °F    
Average Humidity 71    
Maximum Humidity 94    
Minimum Humidity 47    
Precipitation  
Precipitation 0.03 in 0.11 in 3.73 in (1959)
Month to date precipitation 5.16 3.59  
Year to date precipitation 32.26 39.46  
Snow  
Snow 0.00 in - 0.00 in ()
Month to date snowfall 0.0  
Since 1 July snowfall 0.0  
Since 1 September snowfall 0.0  
Snow Depth 0.00 in    
Sea Level Pressure  
Sea Level Pressure 29.94 in    
Wind  
Wind Speed 10 mph (SW)    
Max Wind Speed 17 mph    
Max Gust Speed 27 mph    
Visibility 9 miles    
Events Rain    
T = Trace of Precipitation, MM = Missing Value Source: NWS Daily Summary

Daily Weather History Graph

Daily Weather History Graph

Search for Another Location

Airport or City:

Astronomy

Oct. 22, 2019 Rise Set
Actual Time 7:33 AM EDT 6:46 PM EDT
Civil Twilight 7:08 AM EDT 7:11 PM EDT
Nautical Twilight 6:40 AM EDT 7:39 PM EDT
Astronomical Twilight 6:12 AM EDT 8:07 PM EDT
Moon 1:13 AM EDT (10/22) 3:24 PM EDT (10/22)
Length of Visible Light 12h 02m
Length of Day
11h 13m
Last Quarter, 37% of the Moon is Illuminated
Oct 22
Last Quarter
Oct 27
New
Nov 4
First Quarter
Nov 12
Full
Nov 19
Last Quarter

Hourly Weather History & Observations

Time (EDT) Temp. Heat Index Dew Point Humidity Pressure Visibility Wind Dir Wind Speed Gust Speed Precip Events Conditions
12:53 AM 75.9 °F - 73.9 °F 94% 29.97 in 8.0 mi SSW 6.9 mph - N/A   Overcast
1:38 AM 75.9 °F - 73.9 °F 94% 29.98 in 1.8 mi SW 9.2 mph - N/A   Overcast
1:48 AM 75.2 °F - 73.4 °F 94% 29.97 in 3.0 mi SW 6.9 mph - N/A   Overcast
1:53 AM 75.9 °F - 73.9 °F 94% 29.97 in 5.0 mi SW 8.1 mph - N/A   Overcast
2:48 AM 75.2 °F - 73.4 °F 94% 29.96 in 7.0 mi SW 3.5 mph - N/A   Overcast
2:53 AM 75.9 °F - 73.0 °F 91% 29.96 in 8.0 mi SW 4.6 mph - N/A   Overcast
3:53 AM 75.0 °F - 73.0 °F 94% 29.95 in 10.0 mi SW 4.6 mph - N/A   Overcast
4:05 AM 75.0 °F - 73.0 °F 94% 29.95 in 10.0 mi SW 4.6 mph - N/A   Overcast
4:27 AM 75.0 °F - 73.0 °F 94% 29.94 in 10.0 mi SW 6.9 mph - N/A   Overcast
4:53 AM 75.0 °F - 73.0 °F 94% 29.94 in 10.0 mi SSW 6.9 mph - N/A   Mostly Cloudy
5:09 AM 75.0 °F - 72.0 °F 90% 29.93 in 10.0 mi SSW 5.8 mph - N/A   Scattered Clouds
5:53 AM 75.0 °F - 73.0 °F 94% 29.94 in 10.0 mi SW 8.1 mph - N/A   Overcast
6:34 AM 75.9 °F - 73.0 °F 91% 29.93 in 7.0 mi SSW 9.2 mph - N/A   Overcast
6:53 AM 75.9 °F - 73.0 °F 91% 29.93 in 10.0 mi SSW 10.4 mph - N/A   Overcast
7:30 AM 75.9 °F - 73.9 °F 94% 29.91 in 10.0 mi SSW 10.4 mph - N/A   Overcast
7:53 AM 77.0 °F - 73.9 °F 90% 29.92 in 10.0 mi SSW 15.0 mph 26.5 mph N/A   Overcast
8:28 AM 78.1 °F - 73.9 °F 87% 29.92 in 10.0 mi SW 11.5 mph - N/A   Scattered Clouds
8:37 AM 78.1 °F - 73.9 °F 87% 29.92 in 10.0 mi SW 11.5 mph - N/A   Mostly Cloudy
8:53 AM 78.1 °F - 73.9 °F 87% 29.94 in 10.0 mi SW 13.8 mph - N/A   Overcast
9:40 AM 79.0 °F - 73.9 °F 84% 29.95 in 10.0 mi SW 11.5 mph - N/A   Overcast
9:53 AM 80.1 °F 85.1 °F 75.0 °F 85% 29.95 in 10.0 mi SW 12.7 mph - N/A   Overcast
10:17 AM 81.0 °F 86.2 °F 73.9 °F 79% 29.95 in 10.0 mi SW 13.8 mph - N/A   Scattered Clouds
10:53 AM 82.9 °F 88.8 °F 73.0 °F 72% 29.96 in 10.0 mi SW 16.1 mph 23.0 mph N/A   Clear
11:53 AM 84.9 °F 88.8 °F 69.1 °F 59% 29.94 in 10.0 mi WSW 16.1 mph - N/A   Scattered Clouds
12:53 PM 87.1 °F 91.3 °F 69.1 °F 55% 29.94 in 10.0 mi WSW 15.0 mph 23.0 mph N/A   Partly Cloudy
1:53 PM 86.0 °F 90.1 °F 69.1 °F 57% 29.91 in 10.0 mi WSW 16.1 mph 25.3 mph N/A   Clear
2:53 PM 84.9 °F 88.8 °F 69.1 °F 59% 29.90 in 10.0 mi West 15.0 mph 23.0 mph N/A   Scattered Clouds
3:53 PM 78.1 °F - 70.0 °F 76% 29.91 in 7.0 mi West 11.5 mph 23.0 mph 0.01 in Rain Light Rain
4:53 PM 77.0 °F - 71.1 °F 82% 29.91 in 10.0 mi WSW 9.2 mph - 0.02 in   Scattered Clouds
5:53 PM 78.1 °F - 70.0 °F 76% 29.91 in 10.0 mi SW 6.9 mph - N/A   Clear
6:53 PM 75.9 °F - 71.1 °F 85% 29.94 in 10.0 mi SSW 6.9 mph - N/A   Clear
7:53 PM 75.9 °F - 71.1 °F 85% 29.96 in 10.0 mi SW 5.8 mph - N/A   Mostly Cloudy
8:53 PM 75.0 °F - 72.0 °F 90% 29.98 in 10.0 mi WSW 6.9 mph - N/A   Clear
9:53 PM 73.9 °F - 60.1 °F 62% 30.00 in 10.0 mi Variable 5.8 mph - N/A   Clear
11:53 PM 70.0 °F - 48.9 °F 47% 30.03 in 10.0 mi NW 10.4 mph - N/A   Clear